ECMWFFLT2_850_thetae_021.txt.gz
Theta_e
314 314 314 314 314 314 314 314 318 325 326 325 326 325 324 324 324 323 322 320 319 315 313 312 309 308 306 305 305 304 304 303 304 303 303 303 303 303 304 305 306 307 306 306 306 306 307 307 307 307 307 307
315 315 314 315 315 314 313 313 316 320 320 319 320 320 319 319 320 321 319 316 314 312 311 309 306 305 304 304 304 304 303 303 303 303 303 303 303 304 305 307 306 306 306 306 306 306 306 306 307 307 307 307
315 315 315 315 315 314 313 312 313 315 316 315 316 316 318 318 319 318 316 313 311 311 309 306 304 304 304 304 304 303 303 303 303 303 303 303 304 305 306 306 306 306 306 306 306 306 307 307 307 307 307 307
316 315 315 315 316 315 313 312 312 313 314 314 314 315 316 316 315 314 313 312 310 309 307 304 304 304 304 304 304 303 303 303 303 303 302 303 304 306 306 306 306 306 306 306 306 306 306 306 307 307 307 307
318 316 315 315 315 316 315 313 312 312 313 313 313 313 313 313 312 311 311 310 309 308 306 304 304 304 304 304 304 303 303 303 303 303 303 304 305 306 306 305 305 305 305 306 306 306 306 306 306 306 307 307
320 319 316 315 315 316 316 314 313 312 312 313 312 312 312 311 311 310 310 309 309 308 305 304 304 304 304 304 304 303 303 303 303 303 303 304 305 305 305 305 305 305 305 306 306 306 306 306 306 306 306 306
319 321 319 316 316 315 316 316 314 313 313 312 312 312 312 312 311 311 310 309 309 307 305 305 304 304 304 304 304 303 303 303 303 303 303 304 305 305 305 305 305 305 306 306 306 306 306 306 306 306 306 306
318 320 320 318 317 316 316 316 315 315 314 313 312 313 312 312 312 311 310 309 309 307 305 305 304 304 304 304 304 303 303 303 303 303 304 304 305 305 305 305 305 306 306 306 306 306 306 306 305 306 305 306
317 318 320 321 319 317 317 316 315 315 315 314 313 314 312 313 312 310 310 309 308 307 304 305 305 305 305 304 304 303 303 303 303 303 303 304 305 305 304 304 305 306 306 306 306 306 306 306 305 305 305 305
316 316 318 320 320 319 318 316 316 315 315 314 314 315 314 316 316 311 310 309 308 306 304 305 305 305 305 305 304 303 303 303 303 303 303 304 304 304 304 304 305 305 305 306 306 306 306 305 305 305 305 305
316 316 316 317 319 319 316 315 315 315 315 314 314 314 314 318 317 311 310 309 308 306 304 305 305 305 306 305 304 303 303 303 303 302 303 303 304 304 304 304 304 305 305 305 305 305 305 305 305 305 304 304
316 316 315 316 317 316 315 315 315 315 315 314 314 314 314 317 315 311 310 309 308 306 304 304 305 305 305 305 305 303 303 303 302 302 303 303 304 304 304 303 304 305 305 305 305 305 305 305 305 304 304 304
316 316 316 316 316 315 315 315 315 315 315 315 314 314 315 315 313 312 310 309 308 307 304 304 305 305 305 306 305 303 303 303 302 302 303 303 303 304 304 303 304 304 304 304 305 305 305 304 305 304 304 304
315 316 316 316 316 315 315 315 315 315 315 315 315 316 316 314 312 312 311 309 309 307 305 304 304 305 305 306 305 303 303 303 302 302 303 303 303 304 303 303 303 304 304 304 304 304 304 304 304 304 304 304
315 315 316 316 316 315 315 315 315 315 315 315 315 316 316 314 313 312 311 310 309 307 305 304 304 305 305 306 306 304 303 302 302 302 302 302 303 303 303 303 303 303 304 303 304 304 304 304 304 304 304 304
315 315 315 315 316 316 316 315 316 315 316 316 315 315 315 314 313 312 312 311 309 308 306 304 304 304 304 305 306 305 303 302 302 302 302 302 302 303 303 303 303 303 303 303 303 303 303 303 304 304 304 304
314 314 315 315 315 316 316 316 316 316 316 316 315 315 315 314 314 312 312 311 310 309 307 305 304 304 304 304 306 305 303 303 302 302 302 301 302 302 303 303 302 302 303 303 303 303 303 303 303 303 303 303
314 314 314 315 315 315 316 316 316 316 316 316 315 315 314 314 314 313 312 311 311 309 308 307 305 304 304 304 305 305 304 303 302 302 301 301 301 302 302 302 302 302 302 303 302 303 303 303 303 303 303 303
313 314 314 314 314 315 315 315 315 316 316 316 315 315 314 314 314 314 313 311 311 310 309 308 306 304 303 303 304 304 304 303 302 301 301 301 300 301 302 302 302 302 302 302 302 302 302 303 303 302 303 302
312 313 313 313 314 314 315 315 315 316 316 317 316 316 315 314 314 315 314 313 311 311 309 308 307 305 304 303 303 304 304 303 302 301 301 300 300 300 301 302 302 301 301 302 302 302 302 302 302 302 302 302
312 312 312 313 313 314 315 315 315 316 316 317 317 316 316 315 315 315 315 314 313 311 310 308 307 306 305 303 303 303 303 303 302 301 301 300 300 300 300 301 301 301 301 301 301 302 302 302 301 302 302 302
311 311 311 312 312 313 314 314 315 315 316 316 317 317 317 316 316 315 315 315 314 312 310 309 307 306 306 305 303 302 302 302 301 301 301 300 300 300 300 301 301 301 301 301 301 301 301 301 301 301 301 301
310 310 311 311 311 312 312 313 314 314 315 317 317 317 317 317 316 316 316 316 315 314 311 309 308 306 306 306 303 302 302 302 301 301 301 300 300 299 299 300 300 300 300 301 301 301 301 301 301 301 301 301
310 310 310 310 311 311 311 312 312 313 315 316 317 316 317 317 317 317 317 317 317 316 313 310 308 307 306 306 304 302 301 301 301 301 301 300 300 299 299 299 300 300 300 300 300 300 300 300 300 300 300 301
309 309 309 310 310 310 311 311 311 312 313 314 315 315 316 317 317 318 318 318 318 317 316 313 310 308 306 305 304 302 301 301 301 301 300 300 300 299 299 299 299 300 300 300 300 300 300 300 300 300 300 300
309 308 308 308 309 309 310 310 310 311 312 312 314 314 315 316 317 317 318 318 318 318 317 316 313 310 308 305 304 303 301 300 300 300 300 300 299 299 299 298 299 300 300 300 300 300 299 299 299 299 299 299
307 307 307 307 308 308 308 309 309 310 311 311 312 312 312 313 314 315 316 317 318 318 318 317 316 314 311 308 304 303 302 300 300 300 300 299 299 299 298 298 298 299 299 300 299 299 299 299 298 298 299 299
307 307 307 307 307 307 307 308 308 308 309 309 309 309 310 310 311 312 313 314 315 316 317 317 317 316 315 312 307 303 302 301 300 300 300 299 299 298 298 298 298 299 299 299 299 299 298 299 299 298 299 299
307 307 307 306 306 306 306 306 306 307 307 307 307 308 308 308 309 309 310 311 312 313 315 316 317 317 316 315 312 307 303 301 301 300 299 299 299 299 298 298 298 299 299 299 299 299 299 299 299 299 300 300
307 306 306 306 306 306 305 306 307 307 306 306 307 307 307 307 307 308 308 308 309 310 312 313 315 316 316 316 315 311 306 302 301 300 300 299 299 299 298 298 298 298 299 299 298 299 299 300 300 300 301 300
307 306 306 306 305 305 305 305 306 306 305 305 305 305 306 306 306 306 306 306 307 307 308 309 311 313 314 315 315 314 310 305 301 301 300 299 299 299 298 297 298 298 298 298 298 299 299 299 300 300 301 300

ECMWFFLT2_850_thetae_024.txt.gz
Theta_e
316 317 317 317 316 315 315 315 315 315 315 314 316 320 325 330 332 331 330 327 324 320 316 316 316 314 311 310 309 309 308 306 305 304 304 304 303 303 303 304 305 306 307 307 307 307 307 307 307 307 307 307
316 316 316 317 317 317 316 316 316 316 315 315 318 320 322 326 326 325 323 321 319 316 314 313 313 312 309 307 306 307 306 306 305 304 304 303 303 303 304 305 306 306 306 306 306 306 306 306 306 307 307 307
316 316 316 316 317 317 317 317 316 317 316 317 322 322 320 321 321 320 317 316 315 313 312 311 311 310 306 304 305 305 305 305 304 304 303 303 303 303 305 306 306 306 306 306 306 306 306 306 306 306 306 307
318 317 316 315 315 316 316 316 316 317 316 318 324 324 322 322 321 319 316 315 314 313 311 311 310 307 304 304 304 305 305 305 304 304 303 303 303 304 306 306 306 306 306 305 305 306 306 306 306 306 307 307
318 317 317 316 315 315 315 315 316 317 316 317 322 325 325 324 322 320 317 316 315 313 311 311 309 305 304 304 304 305 304 304 304 304 304 303 304 305 306 306 306 305 305 305 306 306 306 306 306 306 306 307
318 317 318 317 316 315 314 314 315 316 316 315 318 321 322 322 320 319 318 318 315 313 311 310 308 304 304 304 304 305 304 304 304 304 304 304 304 305 306 306 306 305 305 306 306 306 306 306 306 306 306 306
317 317 317 317 316 316 315 315 315 315 315 314 314 316 317 317 317 317 317 317 315 313 311 310 308 305 304 304 304 304 304 304 304 304 303 304 305 305 306 305 305 305 305 306 306 306 306 306 306 306 306 306
316 317 317 317 317 316 315 315 315 314 314 314 313 313 313 314 314 314 314 315 313 311 310 309 308 305 304 304 304 304 304 304 304 304 303 304 305 305 306 305 305 305 305 306 307 307 306 306 306 306 306 306
316 317 317 317 317 316 316 315 315 315 314 314 313 312 312 312 313 313 313 312 311 310 309 309 308 306 304 305 305 304 304 304 304 304 303 304 304 305 305 305 305 305 306 307 307 307 306 306 306 306 306 306
317 317 317 317 317 317 317 316 315 315 315 315 314 313 312 312 313 314 314 313 312 311 310 309 308 306 305 305 305 305 305 304 304 303 303 304 304 305 305 305 305 305 306 307 307 306 306 306 306 306 306 306
316 317 317 317 317 318 318 317 316 315 315 315 315 314 313 312 313 314 314 314 313 312 310 309 308 306 305 305 306 305 305 305 304 303 303 303 304 305 305 305 305 305 306 306 306 306 306 306 306 306 306 306
316 316 317 318 318 318 318 318 318 317 316 316 316 316 316 314 314 314 314 314 313 312 311 310 308 306 305 305 306 305 305 305 304 303 303 303 304 304 305 305 304 304 305 306 306 306 306 306 306 306 306 306
315 315 316 317 318 318 319 319 319 319 318 318 318 318 318 317 316 315 315 314 313 313 312 310 308 307 305 305 306 305 305 305 305 304 303 303 303 304 304 304 304 304 305 306 306 306 306 306 306 306 306 306
314 315 315 316 317 318 319 319 319 320 320 321 320 320 319 317 317 316 315 315 314 314 313 310 309 307 305 304 305 306 305 305 306 304 303 303 303 304 304 304 304 304 304 305 305 305 305 305 305 306 306 306
314 314 315 315 316 317 318 318 319 320 321 322 321 321 320 319 318 317 316 315 315 314 313 311 309 308 306 304 304 305 305 305 305 304 303 303 303 303 303 304 304 304 304 304 305 305 305 305 305 305 305 306
314 314 314 315 315 315 316 317 318 319 319 321 321 321 321 320 319 318 317 316 315 315 313 312 310 309 307 305 304 305 305 305 305 303 302 302 302 302 302 303 303 303 303 303 304 304 304 304 304 305 305 305
314 314 315 315 316 316 316 317 317 318 319 319 320 321 321 320 320 319 318 316 315 315 314 313 312 309 308 306 305 304 304 305 304 303 302 302 302 302 302 302 303 303 303 303 303 303 303 304 304 304 304 304
314 315 316 316 317 318 319 318 318 318 318 319 320 321 321 321 320 319 319 317 316 316 314 313 312 311 309 307 306 304 304 304 304 303 302 302 302 302 302 302 302 303 303 303 303 303 303 303 303 303 304 304
315 315 316 317 319 320 321 321 320 320 319 320 320 320 321 321 320 320 319 318 317 317 315 313 312 311 310 308 306 305 304 304 304 303 302 302 302 301 301 301 302 302 303 302 302 302 302 303 303 303 303 303
316 317 318 319 320 321 321 322 323 323 322 322 321 321 321 321 321 321 320 320 319 318 317 314 312 312 311 309 308 306 304 303 303 303 302 302 301 301 301 301 301 301 302 302 302 302 302 302 302 302 302 302
315 317 318 320 321 322 322 323 323 324 323 323 323 323 322 322 322 322 321 321 320 320 319 316 314 312 311 310 309 307 305 303 303 303 302 301 301 301 301 301 300 301 301 302 302 302 302 302 302 302 302 302
314 316 319 320 321 321 322 322 323 323 324 324 324 324 324 324 323 323 322 322 321 321 320 318 316 314 312 311 310 308 306 304 302 302 302 301 301 301 300 300 300 300 301 301 302 302 302 301 301 301 302 302
312 314 316 318 319 320 320 321 321 322 323 323 323 324 324 324 323 323 323 322 322 321 320 319 318 316 314 313 311 310 308 305 302 301 302 301 301 300 300 300 300 300 300 301 301 301 301 301 301 301 301 301
310 311 312 313 315 316 316 318 319 320 321 322 322 322 323 322 322 322 322 322 322 321 321 320 319 318 317 315 313 312 310 307 304 302 301 301 301 300 300 300 299 299 299 300 300 301 301 301 301 301 301 301
309 310 312 313 314 315 315 316 317 318 319 319 320 320 320 320 320 319 319 319 320 321 321 320 320 320 319 317 316 314 312 310 307 303 301 301 301 300 300 299 299 299 299 299 300 300 300 300 300 300 300 300
311 311 312 313 315 316 316 317 317 317 316 316 318 319 318 317 316 315 315 315 317 319 320 320 320 320 319 319 318 317 314 312 310 306 302 300 300 300 299 299 299 299 299 299 299 300 300 300 300 299 300 300
312 313 312 312 314 314 313 314 314 313 313 312 314 315 316 315 314 313 313 313 314 315 316 317 318 319 319 319 319 318 317 315 312 309 305 302 300 299 299 298 298 298 299 299 299 299 299 299 299 299 299 300
310 309 309 308 309 309 309 309 308 308 308 308 309 310 310 310 310 310 310 310 311 311 313 314 315 316 317 318 318 319 318 317 315 312 309 305 302 300 299 298 298 298 298 298 298 299 298 298 298 298 299 300
307 306 306 306 306 307 307 307 307 307 307 306 306 306 306 306 306 306 306 306 307 308 309 310 312 313 315 316 316 317 318 318 317 316 313 310 306 302 300 298 298 298 298 298 298 298 298 298 298 299 300 300
307 307 307 306 306 306 307 307 308 308 307 306 305 305 304 305 305 305 305 304 305 305 305 306 308 310 312 313 314 315 316 316 317 317 316 314 310 305 302 299 298 297 298 298 297 298 298 298 299 299 300 300
307 307 307 306 306 306 305 306 307 306 306 305 304 304 303 303 304 304 304 304 304 304 304 304 305 306 308 310 311 312 313 314 315 315 316 315 313 309 304 300 298 297 298 298 297 297 298 298 298 299 299 300

ECMWFFLT2_850_thetae_030.txt.gz
Theta_e
319 319 319 319 319 318 317 316 315 315 316 319 321 322 322 322 325 324 327 331 332 332 331 330 328 326 324 319 316 315 315 316 316 312 310 308 305 304 304 304 304 304 305 306 307 308 308 307 308 308 308 308
320 319 319 318 318 317 317 316 315 314 314 315 317 319 319 320 320 321 327 331 331 331 331 330 328 325 322 317 314 312 311 314 315 312 308 306 304 304 303 303 304 304 306 307 308 307 307 308 307 307 307 307
320 320 319 319 318 317 316 316 316 315 314 314 315 316 317 318 317 318 327 331 330 329 329 328 325 322 318 313 312 310 309 309 310 309 306 305 304 304 304 304 304 305 307 307 307 307 307 307 307 307 307 307
319 320 320 319 319 318 317 316 316 315 314 314 314 315 315 316 316 317 324 329 330 329 327 324 320 318 315 312 311 309 308 306 306 307 306 305 304 304 304 304 305 306 307 307 306 307 306 306 307 307 307 307
318 319 320 320 319 319 318 317 317 316 315 315 315 315 315 315 315 316 320 325 328 328 325 321 317 315 314 313 311 309 306 305 306 306 305 305 304 304 304 304 306 307 307 306 306 306 306 306 307 307 307 307
317 318 319 319 320 320 319 319 318 317 317 316 316 316 316 315 315 315 317 321 326 327 324 320 318 315 314 313 311 309 306 305 305 305 305 305 304 304 304 305 306 307 307 306 306 306 306 307 307 307 307 307
316 317 317 318 319 319 320 320 319 319 318 317 317 316 317 316 315 316 317 321 325 326 324 321 318 315 315 314 312 309 306 305 305 305 305 305 305 304 304 305 306 307 307 306 306 306 307 308 308 308 308 308
316 316 316 317 318 319 319 320 320 320 319 318 318 318 318 317 316 317 319 323 326 328 327 322 318 316 315 313 312 309 306 305 305 305 305 305 304 304 304 305 306 307 307 306 306 307 308 308 308 308 308 308
315 316 316 316 317 318 319 319 320 321 320 319 318 319 319 318 317 317 319 324 328 329 328 324 318 315 313 312 312 310 306 305 305 305 305 304 304 304 304 305 306 307 307 306 306 307 309 309 309 309 309 309
315 315 316 316 317 318 319 319 319 320 320 320 319 319 319 318 318 317 319 324 328 328 326 322 317 313 312 312 312 311 308 305 305 305 305 304 304 304 304 304 306 307 307 306 306 308 309 309 309 309 309 309
316 316 316 316 317 318 319 319 319 320 319 319 319 320 320 320 319 317 317 322 326 326 324 320 315 312 312 312 312 312 310 307 305 305 305 304 303 303 304 304 305 306 307 306 306 308 309 309 309 308 309 308
317 316 317 317 318 318 319 320 320 320 319 319 319 319 320 320 319 318 318 321 323 323 322 320 316 313 313 312 312 313 311 308 306 305 305 304 303 303 303 303 305 306 307 306 306 307 308 309 308 308 308 308
317 317 317 317 317 318 319 320 321 321 321 320 319 319 319 320 319 319 319 321 322 322 321 320 318 316 314 313 313 314 312 309 307 305 304 304 303 303 303 303 304 305 306 306 305 306 308 308 308 308 308 308
318 317 317 318 317 318 319 321 322 322 323 322 321 321 320 320 319 319 320 322 323 323 322 320 319 318 317 315 314 314 314 312 309 307 305 304 303 303 303 303 303 304 305 306 305 305 306 307 308 307 307 307
319 318 318 318 319 320 320 321 323 324 324 324 324 323 323 322 321 320 321 324 324 324 324 323 321 320 319 317 316 314 314 314 312 309 305 303 303 302 303 303 303 303 304 305 305 305 305 306 307 307 307 307
320 319 319 320 321 321 322 323 324 325 325 325 325 325 325 324 323 322 322 324 325 324 324 324 323 323 321 319 318 316 315 315 315 312 307 304 303 302 302 302 302 302 303 304 304 305 305 305 306 306 307 306
320 321 321 322 323 323 324 325 326 326 326 327 327 327 326 326 325 324 324 324 324 324 324 324 324 323 322 320 320 319 317 317 317 315 310 305 303 302 302 302 302 302 302 303 304 304 304 304 304 305 306 306
321 322 323 323 324 324 325 326 327 327 327 328 328 328 327 327 327 326 325 325 326 326 326 325 325 324 322 321 321 320 319 318 318 317 313 307 303 302 302 302 302 302 302 302 303 303 304 304 304 304 305 305
322 323 323 324 325 325 326 326 327 327 327 328 328 328 328 327 327 327 327 327 327 326 326 326 325 324 324 323 323 322 320 320 319 318 316 311 305 302 302 302 302 302 301 301 302 302 303 303 303 303 304 304
323 324 325 325 326 326 326 326 326 327 327 327 327 328 328 328 327 328 328 327 327 327 326 326 325 325 325 325 324 324 322 321 320 319 318 315 311 307 303 302 302 302 301 301 301 301 301 302 303 303 303 303
322 325 326 326 326 326 326 326 326 326 327 327 327 327 327 327 327 327 327 326 326 327 327 326 326 325 325 325 325 324 324 323 322 321 319 318 317 314 309 304 302 302 301 301 301 300 300 301 302 302 302 303
321 323 325 325 325 325 325 325 325 326 325 325 325 326 326 326 326 326 326 326 326 326 326 326 325 326 326 325 325 325 324 324 323 322 321 320 319 317 315 310 306 304 303 302 300 300 300 300 301 301 302 302
320 323 325 325 325 324 324 324 324 324 324 325 325 325 326 326 325 325 325 325 325 325 325 325 325 325 325 325 324 324 324 323 323 322 322 321 321 319 317 315 311 307 305 304 302 299 299 299 299 300 301 301
319 322 323 324 324 323 324 323 324 324 324 324 324 325 325 326 325 325 325 325 324 324 324 324 324 324 324 324 324 323 323 322 321 321 321 321 321 320 318 316 314 311 307 305 303 300 298 298 298 299 300 301
316 318 320 321 322 322 323 322 322 322 322 323 322 322 323 323 324 324 324 324 324 323 323 323 323 323 323 323 322 322 321 321 321 320 320 321 320 319 318 317 315 313 309 306 304 301 298 298 298 298 299 299
312 313 315 316 318 319 319 319 320 319 320 320 320 321 321 321 321 322 323 323 322 322 322 322 322 321 321 320 319 319 319 319 320 319 319 320 320 319 318 317 316 314 311 307 305 302 299 298 298 298 298 299
310 310 311 312 313 313 314 314 314 315 316 316 317 318 319 319 319 320 320 320 320 319 319 319 319 319 318 318 318 317 317 318 318 318 319 319 319 318 317 316 315 314 313 309 306 302 300 298 298 298 298 299
308 308 309 309 310 309 310 310 309 309 310 310 311 311 313 314 315 316 316 316 317 317 317 317 316 316 316 316 316 316 316 317 317 317 317 318 317 317 316 315 314 314 313 311 308 303 299 298 297 297 298 298
307 307 307 307 307 307 307 307 307 307 306 306 306 307 307 307 309 310 311 311 312 312 313 313 313 313 313 314 315 315 315 315 315 314 315 315 315 315 315 314 314 313 311 311 310 306 301 299 297 297 298 298
307 307 307 307 307 307 306 306 306 306 305 305 305 305 305 305 305 305 305 305 305 306 306 307 308 309 310 312 313 314 314 313 313 313 312 312 312 312 312 312 311 311 310 310 309 307 304 301 299 298 297 297
307 307 307 307 307 307 306 306 306 305 304 304 304 304 304 304 304 304 304 303 303 303 304 304 305 306 307 309 310 311 312 312 312 312 312 311 311 310 310 309 309 309 309 308 308 307 305 303 301 299 297 297

ECMWFFLT2_850_thetae_033.txt.gz
Theta_e
322 322 322 322 323 324 324 323 323 323 323 323 324 325 325 324 323 326 328 326 329 332 329 329 330 329 328 325 323 319 315 313 313 311 309 310 309 307 305 304 304 304 304 304 306 307 307 307 307 307 307 307
322 322 323 322 323 323 324 324 323 322 322 322 323 325 325 324 323 323 327 326 327 331 329 329 330 329 329 327 324 320 315 314 316 314 309 309 307 306 305 304 304 304 304 305 307 307 307 307 307 307 307 307
322 323 323 322 323 323 324 324 324 323 321 321 323 325 324 324 324 323 325 326 326 329 330 329 329 329 329 328 325 321 315 313 314 311 308 308 306 305 305 304 304 304 305 306 307 308 307 307 307 307 307 307
321 322 323 323 323 323 324 324 324 324 322 321 321 322 323 324 325 326 325 325 326 329 330 330 329 327 326 327 325 320 315 312 310 307 307 308 305 305 304 304 304 304 305 307 308 308 307 307 307 307 307 307
320 321 323 323 324 325 325 324 324 324 323 321 319 320 321 322 325 326 326 326 327 329 331 331 330 328 326 325 322 319 315 311 308 305 306 306 304 305 304 304 304 304 306 307 308 307 307 307 307 307 307 307
317 319 321 323 324 326 326 326 326 326 324 322 320 318 319 321 323 325 325 325 326 329 330 330 330 329 327 324 321 318 315 312 308 305 305 305 304 304 304 304 304 305 306 307 307 307 307 306 307 308 308 308
316 317 319 321 323 325 325 326 327 326 325 324 322 319 318 319 320 322 323 323 324 327 329 329 329 329 328 326 321 317 315 312 308 305 305 305 304 303 303 304 304 304 306 307 307 307 306 306 307 308 308 308
315 316 317 319 321 323 325 325 326 326 325 324 323 322 320 319 319 320 321 321 322 325 327 328 329 329 328 326 321 317 315 312 309 306 304 305 304 303 303 304 304 304 306 307 307 306 306 307 308 309 308 308
316 316 316 317 318 321 323 324 325 325 325 325 324 324 322 320 319 320 320 320 320 322 325 327 328 328 328 325 320 317 316 313 311 307 304 305 304 303 303 303 304 304 306 306 306 306 306 307 308 308 309 309
318 317 317 317 317 319 320 323 325 325 325 325 325 325 325 324 321 320 320 319 318 319 321 326 328 328 328 325 320 318 317 314 313 309 305 304 304 303 303 303 303 304 305 306 306 306 306 307 308 308 309 309
318 318 318 318 318 318 318 321 324 325 325 325 326 326 325 325 323 322 322 321 319 318 319 322 325 327 327 325 322 319 316 315 314 312 308 305 303 303 302 303 303 303 304 305 306 306 306 306 308 309 308 309
319 318 319 319 320 320 319 319 322 325 324 324 325 327 327 326 325 325 324 323 321 320 320 321 324 326 327 326 325 322 317 315 315 314 312 307 304 303 302 302 302 303 303 305 306 306 306 306 307 308 308 309
319 319 319 319 320 320 321 321 321 323 325 327 325 325 327 326 326 326 325 324 324 322 321 323 325 327 328 327 327 325 321 318 318 317 315 311 307 304 302 302 302 302 303 304 305 305 306 305 306 307 308 308
320 320 320 320 320 321 322 323 323 323 325 329 330 329 327 326 326 326 326 326 325 324 322 323 327 327 327 327 327 324 321 321 321 320 318 315 312 307 303 302 302 302 302 303 304 305 305 305 305 306 308 308
320 321 321 321 321 322 323 324 326 326 325 327 329 330 328 327 327 326 326 326 326 325 324 324 326 327 327 327 326 324 323 323 324 322 320 318 316 312 307 303 302 302 301 302 303 304 305 305 305 305 306 307
321 322 322 322 322 323 323 324 326 327 327 327 327 327 326 326 327 326 326 327 326 326 325 325 326 327 327 327 326 326 325 325 324 324 322 319 318 317 311 306 302 302 301 301 302 303 304 304 305 305 305 306
322 323 323 323 323 324 324 325 326 326 327 328 328 327 327 327 327 327 327 327 327 326 325 326 327 327 327 327 327 326 326 325 324 324 323 321 320 319 316 310 304 302 302 301 301 302 303 304 304 304 304 304
322 323 324 324 324 325 325 325 325 326 326 327 327 327 328 328 328 328 328 327 327 326 326 326 326 326 326 326 325 325 325 325 325 324 323 322 321 320 319 315 308 302 301 301 301 301 302 302 303 304 304 304
322 324 325 325 325 325 325 326 326 326 326 327 326 326 326 326 326 326 326 326 326 326 326 326 326 326 325 325 325 325 325 325 324 324 324 323 323 321 320 318 313 305 301 301 301 301 301 301 302 303 303 303
322 325 326 326 326 326 326 327 327 328 328 327 327 327 327 327 326 325 325 325 325 325 325 325 325 325 325 325 325 324 324 324 324 324 324 324 323 323 321 320 318 313 308 304 302 300 300 300 300 301 302 302
322 324 325 326 326 326 327 327 327 328 328 328 328 329 329 328 328 328 328 327 327 326 325 324 324 324 325 325 325 325 325 325 325 324 324 324 323 322 322 321 320 319 316 312 307 303 301 300 299 300 300 301
322 324 325 325 325 325 326 327 327 326 326 327 327 328 327 327 326 327 327 327 327 328 327 327 326 325 325 325 325 325 325 325 325 324 323 323 322 321 320 321 321 320 319 317 314 310 307 304 301 300 299 299
322 324 324 325 325 325 325 325 325 326 325 326 326 327 327 326 326 326 326 326 327 327 327 327 326 325 325 325 325 324 324 324 323 323 322 322 321 319 319 319 319 319 319 319 317 316 313 310 307 304 301 299
321 323 323 323 323 323 324 323 324 324 324 325 325 325 326 326 326 326 326 326 325 325 325 325 325 325 325 325 325 325 324 324 324 323 323 322 321 320 320 319 318 318 319 318 318 317 316 314 312 309 306 302
320 321 321 322 322 322 322 322 322 322 322 323 323 322 323 323 324 324 325 324 324 324 324 324 324 324 324 323 324 324 323 323 323 322 321 321 320 320 320 319 319 318 318 318 317 316 316 315 313 311 309 305
315 316 317 319 319 320 320 320 320 320 320 320 320 320 320 319 320 320 322 322 323 323 323 323 322 322 321 322 322 322 322 321 320 319 318 318 319 319 319 319 318 318 318 317 316 316 314 314 313 312 310 308
310 311 312 314 315 315 315 316 317 317 317 317 318 318 318 318 318 318 318 319 320 321 321 321 321 320 320 320 320 320 320 319 318 317 317 317 317 318 318 318 318 317 317 316 315 314 311 310 310 310 310 311
308 309 309 309 310 310 310 311 311 311 312 312 312 312 313 314 315 315 316 317 317 318 318 318 318 318 318 318 318 318 317 317 317 316 316 316 317 316 315 315 315 315 314 314 313 311 309 307 306 306 307 309
307 307 307 307 307 307 307 307 307 307 307 306 306 307 307 307 308 309 311 312 312 313 313 313 314 314 314 314 314 314 314 315 315 315 315 316 316 315 314 313 313 313 312 311 311 309 307 306 305 304 304 305
307 307 307 307 307 307 307 307 306 306 305 305 305 305 304 304 304 305 305 306 306 306 307 307 307 307 308 308 309 310 311 311 312 313 314 314 314 314 313 312 312 312 311 310 309 308 307 307 306 305 304 304
306 306 306 306 306 306 306 306 306 306 305 305 304 304 303 303 303 303 303 303 303 303 303 303 303 304 304 305 305 306 307 308 309 310 311 311 312 312 312 311 310 310 310 309 309 308 307 306 306 305 303 302